This demonstration page uses our WeatherBlox Daily Observations layout. Learn more.

Left ArrowRight Arrow

Hourly Observations for June 14, 2021

Temp ( °F °C ) Dew Point ( °F °C ) Humidity (%) Winds ( mph kmh ) Pressure ( in mb ) Visibility ( mi km ) Precip ( " mm )
12:51 am 00:51 Mostly Clear 90 32.2 15 -9.4 6 6 NNE 7 11 29.74 1007 10 16 N/A
1:51 am 01:51 Mostly Clear 84 28.9 14 -10 7 7 NW 10 17 29.73 1007 10 16 N/A
2:51 am 02:51 Clear 80 26.7 19 -7.2 10 10 N N/A 29.74 1007 10 16 N/A
3:51 am 03:51 Clear 78 25.6 17 -8.3 10 10 N N/A 29.75 1007 10 16 N/A
4:51 am 04:51 Clear 77 25 17 -8.3 10 10 SSW 3 6 29.76 1008 10 16 N/A
5:51 am 05:51 Sunny 74 23.3 14 -10 10 10 N N/A 29.79 1009 10 16 N/A
6:51 am 06:51 Sunny 83 28.3 17 -8.3 8 8 N N/A 29.79 1009 10 16 N/A
7:51 am 07:51 Sunny 89 31.7 21 -6.1 8 8 N 3 6 29.80 1009 10 16 N/A
8:51 am 08:51 Sunny 93 33.9 24 -4.4 8 8 VRB 5 7 29.81 1009 10 16 N/A
9:51 am 09:51 Sunny 99 37.2 29 -1.7 8 8 N N/A 29.80 1009 10 16 N/A
10:51 am 10:51 Sunny 103 39.4 32 undefined 8 8 VRB 3 6 29.77 1008 10 16 N/A
11:51 am 11:51 Sunny 107 41.7 34 1.1 8 8 S 9 15 29.74 1007 10 16 N/A
12:51 pm 12:51 Sunny 108 42.2 34 1.1 8 8 VRB 6 9 29.70 1006 10 16 N/A
1:51 pm 13:51 Cloudy 112 44.4 34 1.1 7 7 VRB 6 9 29.67 1005 10 16 N/A
2:51 pm 14:51 Cloudy 112 44.4 34 1.1 7 7 SSW 9 15 29.65 1004 10 16 N/A
3:51 pm 15:51 Cloudy 112 44.4 34 1.1 7 7 WSW 8 13 29.62 1003 10 16 N/A
4:22 pm 16:22 Mostly Cloudy with Nearby Thunderstorms 112 44.4 33 0.6 7 7 VRB 3 6 29.44 997 10 16 N/A
4:37 pm 16:37 Mostly Cloudy 111 43.9 33 0.6 7 7 undefined N/A 29.44 997 10 16 N/A
4:51 pm 16:51 Mostly Cloudy 108 42.2 36 2.2 8 8 N 24 39 29.62 1003 10 16 N/A
5:43 pm 17:43 Mostly Cloudy with Nearby Thunderstorms 106 41.1 36 2.2 9 9 N 21 33 29.49 999 10 16 N/A
5:51 pm 17:51 Mostly Cloudy with Nearby Thunderstorms 106 41.1 35 1.7 9 9 NW 13 20 29.66 1004 10 16 N/A
5:58 pm 17:58 Mostly Cloudy 105 40.6 36 2.2 9 9 NE 23 37 29.50 999 9 14 N/A
6:13 pm 18:13 Partly Cloudy with Nearby Thunderstorms 104 40 37 2.8 10 10 NW 18 30 29.51 999 7 11 N/A
6:23 pm 18:23 Partly Cloudy with Nearby Thunderstorms 104 40 37 2.8 10 10 W 14 22 29.51 999 10 16 N/A
6:31 pm 18:31 undefined 105 40.6 35 1.7 9 9 W 15 24 29.50 999 10 16 N/A
6:51 pm 18:51 Mostly Cloudy 103 39.4 37 2.8 10 10 WSW 15 24 29.66 1004 7 11 N/A
7:51 pm 19:51 Mostly Cloudy 100 37.8 37 2.8 11 11 W 12 19 29.65 1004 10 16 N/A
8:51 pm 20:51 Mostly Cloudy 99 37.2 37 2.8 12 12 NNW 12 19 29.65 1004 10 16 N/A
9:51 pm 21:51 Mostly Cloudy 98 36.7 35 1.7 11 11 W 3 6 29.68 1005 10 16 N/A
10:51 pm 22:51 Partly Cloudy 92 33.3 35 1.7 13 13 NW 5 7 29.69 1006 10 16 N/A
11:51 pm 23:51 Mostly Clear 91 32.8 36 2.2 14 14 S 3 6 29.71 1006 10 16 N/A

Powered by AerisWeather